"Pseudo-MPEC" for C074T02

Created 2019 Feb 13 5:18:34 UT using Find_Orb

Click here for an explanation of pseudo-MPECs

 
 Astrometry: 
     C074T02  C2019 02 11.39110 12 25 39.70 +11 30 13.5    ~2BAI 20.5 GVNEOCPG96
     C074T02  C2019 02 11.39671 12 25 42.86 +11 31 00.1    ~2BAI 20.1 GVNEOCPG96
     C074T02  C2019 02 11.40233 12 25 46.07 +11 31 47.7    ~2BAI 19.9 GVNEOCPG96
     C074T02  C2019 02 11.40794 12 25 49.28 +11 32 34.6    ~2BAI 20.0 GVNEOCPG96
     C074T02  C2019 02 11q-e/fxTM^ywAQ^'p$3FQ16@\=`AstrometryE`L114PAN]TUu-SpV06
     C074T02  C2019 02 11/PEtf[1#aC4us/PF*redacted;WAld7+/i:3-#g7b$C5A*20`?VbV06
     C074T02  C2019 02 11yk!B_4)bAddE)a4$kG4clickK-T[I@Pv'64(jHgXR*ZMnxrQ9,V+V06
     C074T02 KC2019 02 12.13825112 32 57.89 +13 08 47.6    ~2C43 20.6 GVNEOCPJ95
     C074T02 KC2019 02 12.14206612 32 59.87 +13 09 16.1    ~2C43 20.1 GVNEOCPJ95
     C074T02 KC2019 02 12.15317912 33 05.82 +13 10 40.0    ~2C43 20.1 GVNEOCPJ95
     C074T02 KC2019 02 12.15605112 33 07.28 +13 11 01.7    ~2C43 19.9 GVNEOCPJ95
     C074T02  C2019 02 12.29544 12 34 31.54 +13 28 53.7    ~2C7X 20.2 GVNEOCPI52
     C074T02  C2019 02 12.29668 12 34 32.17 +13 29 03.7    ~2C7X 20.4 GVNEOCPI52
     C074T02  C2019 02 12.29793 12 34 32.85 +13 29 13.2    ~2C7X 20.8 GVNEOCPI52
     C074T02  C2019 02 12.29917 12 34 33.54 +13 29 22.5    ~2C7X 20.0 GVNEOCPI52
     C074T02 KC2019 02 13crv:T2(Z:r]\Qifep4h@WNP6tMPMheresnyo.S'6hvc%2nHRYfQ`L01
     C074T02 KC2019 02 131RU^K#7tek!YR8d2`l$\wdC,RY2Wjf(jC@d.efor@cDL(\6:BR`iL01
     C074T02 KC2019 02 130'6OGsj87R#X!explanation^x]u8Y'S3pkQ(iN)d)+\Ou9(xKx0L01

Station data:
(G96) Mt. Lemmon Survey  (N32.442754 W110.788720)  US/Arizona.  Observers B.
   M. Africano, E. J. Christensen, G. A. Farneth, D. C. Fuls, A. R. Gibbs, A.
   D. Grauer, H. Groeller, J. A. Johnson, R. A. Kowalski, S. M. Larson, G. J.
   Leonard, R. L. Seaman, F. C. Shelly. 1.5-m reflector + 10K CCD.
(I52) Steward Observatory, Mt. Lemmon Station  (N32.442547 W110.788920)
   US/Arizona.  Observers B. M. Africano, E. J. Christensen, G. A. Farneth,
   D. C. Fuls, A. R. Gibbs, A. D. Grauer, H. Groeller, J. A. Johnson, R. A.
   Kowalski, S. M. Larson, G. J. Leonard, R. L. Seaman, F. C. Shelly. 1.0-m
   reflector + CCD.
(J95) Great Shefford  (N51.474969 W1.447003)  UK.  Observer P. Birtwhistle.
   0.40-m f/6.0 Schmidt-Cassegrain + CCD.
(L01) Višnjan Observatory, Tičan  (N45.290900 E13.749300)  Croatia.
   Observers K. Korlević, E. Pettarin. Measurer E. Pettarin. 1.0-m f/2.9
   reflector + CCD.
(V06) Catalina Sky Survey-Kuiper  (N32.416847 W110.732550)  US/Arizona.
   Observers B. M. Africano, E. J. Christensen, G. A. Farneth, D. C. Fuls, A.
   R. Gibbs, A. D. Grauer, H. Groeller, J. A. Johnson, R. A. Kowalski, S. M.
   Larson, G. J. Leonard, R. L. Seaman, F. C. Shelly. 1.55-m reflector + CCD.

Orbital elements:  C074T02
   Perihelion 2019 Jan 27.117293 +/- 0.00925 TT =  2:48:54 (JD 2458510.617293)
Epoch 2019 Feb 13.0 TT = JDT 2458527.5   Earth MOID: 0.0430   AutoNEOCP
M   4.26866720 +/- 0.041            (J2000 ecliptic)
n   0.25284257 +/- 0.00237          Peri.  345.78041 +/- 0.007
a   2.47686637 +/- 0.0155           Node   140.54773 +/- 0.006
e   0.5880538 +/- 0.00252           Incl.   12.45460 +/- 0.036
P   3.90                   H 24.8   G  0.15   U  8.7  
q 1.02033564 +/- 0.000141    Q 3.93339710 +/- 0.031
From 18 observations 2019 Feb. 11-13 (40.3 hr); mean residual 0".31
Residuals in arcseconds: 
190211 G96  .11+  .01-    190211 V06  .19+  .25+    190212 I52  .49-  .02-    
190211 G96  .38-  .41-    190212 J95  .54+  .40+    190212 I52  .17-  .04+    
190211 G96  .15-  .16+    190212 J95  .18-  .03-    190212 I52  .37+  .01-    
190211 G96  .21+  .17+    190212 J95  .43+  .24-    190213 L01  .22+  .12+    
190211 V06  .38-  .07+    190212 J95  .54-  .25-    190213 L01  .05-  .08+    
190211 V06  .27-  .35+    190212 I52  .15-  .66-    190213 L01  .58-  .40+    

Ephemerides (geocentric):
Date (UTC) HH   RA              Dec         delta   r     elong  mag " sig PA
---- -- -- --  -------------   -----------  ------ ------ -----  --- ---- ---
2019 02 13 05  12 42 27.784   +15 16 22.59  .07617 1.0443 137.1 20.9 .272 148
2019 02 13 06  12 42 48.620   +15 20 57.24  .07636 1.0444 137.0 20.9 .274 146
2019 02 13 07  12 43 09.360   +15 25 30.44  .07655 1.0445 137.0 20.9 .276 144
2019 02 13 08  12 43 30.004   +15 30 02.19  .07673 1.0446 136.9 20.9 .278 143
2019 02 13 09  12 43 50.552   +15 34 32.50  .07692 1.0448 136.9 20.9 .280 141
2019 02 13 10  12 44 11.005   +15 39 01.38  .07711 1.0449 136.9 20.9 .283 139
2019 02 13 11  12 44 31.363   +15 43 28.84  .07730 1.0450 136.8 20.9 .286 137
2019 02 13 12  12 44 51.627   +15 47 54.89  .07749 1.0451 136.8 20.9 .289 135
2019 02 13 13  12 45 11.797   +15 52 19.53  .07768 1.0452 136.7 20.9 .293 134
2019 02 13 14  12 45 31.874   +15 56 42.77  .07787 1.0453 136.7 20.9 .297 132
2019 02 13 15  12 45 51.857   +16 01 04.63  .07805 1.0455 136.7 20.9 .301 130
2019 02 13 16  12 46 11.748   +16 05 25.10  .07824 1.0456 136.6 20.9 .305 128
2019 02 13 17  12 46 31.547   +16 09 44.20  .07844 1.0457 136.6 20.9 .310 126
2019 02 13 18  12 46 51.255   +16 14 01.94  .07863 1.0458 136.5 20.9 .315 125
2019 02 13 19  12 47 10.871   +16 18 18.32  .07882 1.0459 136.5 20.9 .321 123
2019 02 13 20  12 47 30.397   +16 22 33.35  .07901 1.0461 136.5 20.9 .327 121
2019 02 13 21  12 47 49.832   +16 26 47.04  .07920 1.0462 136.4 21.0 .333 120
2019 02 13 22  12 48 09.178   +16 30 59.40  .07939 1.0463 136.4 21.0 .339 118
2019 02 13 23  12 48 28.434   +16 35 10.43  .07958 1.0464 136.4 21.0 .346 116
2019 02 14 00  12 48 47.602   +16 39 20.15  .07977 1.0465 136.3 21.0 .353 115
2019 02 14 01  12 49 06.681   +16 43 28.56  .07997 1.0467 136.3 21.0 .361 113
2019 02 14 02  12 49 25.672   +16 47 35.66  .08016 1.0468 136.2 21.0 .369 112
2019 02 14 03  12 49 44.575   +16 51 41.48  .08035 1.0469 136.2 21.0 .377 111
2019 02 14 04  12 50 03.391   +16 55 46.00  .08055 1.0470 136.2 21.0 .385 109
2019 02 14 05  12 50 22.120   +16 59 49.25  .08074 1.0471 136.1 21.0 .394 108
2019 02 14 06  12 50 40.763   +17 03 51.23  .08093 1.0473 136.1 21.0 .403 106
2019 02 14 07  12 50 59.320   +17 07 51.95  .08113 1.0474 136.1 21.0 .412 105
2019 02 14 08  12 51 17.792   +17 11 51.41  .08132 1.0475 136.0 21.0 .421 104
2019 02 14 09  12 51 36.178   +17 15 49.62  .08152 1.0476 136.0 21.0 .431 103
2019 02 14 10  12 51 54.480   +17 19 46.60  .08171 1.0477 136.0 21.0 .441 102
2019 02 14 11  12 52 12.698   +17 23 42.34  .08191 1.0479 135.9 21.0 .451 101
2019 02 14 12  12 52 30.832   +17 27 36.85  .08210 1.0480 135.9 21.0 .462 100
2019 02 14 13  12 52 48.882   +17 31 30.15  .08230 1.0481 135.8 21.1 .473  99
2019 02 14 14  12 53 06.850   +17 35 22.24  .08249 1.0482 135.8 21.1 .484  98
2019 02 14 15  12 53 24.734   +17 39 13.12  .08269 1.0484 135.8 21.1 .495  97
2019 02 14 16  12 53 42.537   +17 43 02.81  .08289 1.0485 135.7 21.1 .506  96
2019 02 14 17  12 54 00.258   +17 46 51.31  .08308 1.0486 135.7 21.1 .518  95
2019 02 14 18  12 54 17.898   +17 50 38.63  .08328 1.0487 135.7 21.1 .530  94
2019 02 14 19  12 54 35.456   +17 54 24.78  .08348 1.0489 135.6 21.1 .542  93
2019 02 14 20  12 54 52.934   +17 58 09.76  .08368 1.0490 135.6 21.1 .554  92
2019 02 14 21  12 55 10.332   +18 01 53.58  .08387 1.0491 135.6 21.1 .567  91
2019 02 14 22  12 55 27.650   +18 05 36.24  .08407 1.0492 135.5 21.1 .579  91
2019 02 14 23  12 55 44.889   +18 09 17.76  .08427 1.0494 135.5 21.1 .592  90
2019 02 15 00  12 56 02.048   +18 12 58.14  .08447 1.0495 135.5 21.1 .605  89
2019 02 15 01  12 56 19.129   +18 16 37.39  .08467 1.0496 135.4 21.1 .618  89
2019 02 15 02  12 56 36.132   +18 20 15.52  .08487 1.0497 135.4 21.1 .631  88
2019 02 15 03  12 56 53.057   +18 23 52.53  .08507 1.0499 135.4 21.1 .645  87
2019 02 15 04  12 57 09.904   +18 27 28.42  .08526 1.0500 135.4 21.1 .659  87